TimeAKDT,TemperatureF,Dew PointF,Humidity,Sea Level PressureIn,VisibilityMPH,Wind Direction,Wind SpeedMPH,Gust SpeedMPH,PrecipitationIn,Events,Conditions,WindDirDegrees,DateUTC
12:47 AM,46.4,44.6,93,29.69,10.0,East,6.9,18.4,0.02,Rain,Light Rain,100,2013-05-18 08:47:00
12:54 AM,46.9,44.1,90,29.70,10.0,ESE,8.1,-,0.03,Rain,Light Rain,110,2013-05-18 08:54:00
1:17 AM,46.4,44.6,93,29.70,8.0,ESE,5.8,-,0.01,Rain,Light Rain,110,2013-05-18 09:17:00
1:32 AM,46.4,44.6,93,29.69,9.0,East,8.1,-,0.03,Rain,Light Rain,80,2013-05-18 09:32:00
1:49 AM,46.4,44.6,93,29.68,9.0,East,11.5,16.1,0.04,Rain,Light Rain,80,2013-05-18 09:49:00
1:54 AM,46.9,44.1,90,29.69,10.0,East,8.1,16.1,0.04,Rain,Light Rain,80,2013-05-18 09:54:00
2:22 AM,46.4,44.6,93,29.69,7.0,East,8.1,-,0.03,Rain,Light Rain,80,2013-05-18 10:22:00
2:54 AM,46.9,44.1,90,29.70,8.0,East,8.1,18.4,0.07,Rain,Rain,100,2013-05-18 10:54:00
3:54 AM,46.9,44.1,90,29.70,8.0,East,9.2,18.4,0.07,Rain,Light Rain,90,2013-05-18 11:54:00
4:54 AM,46.0,44.1,93,29.70,6.0,East,10.4,-,0.05,Rain,Rain,80,2013-05-18 12:54:00
5:54 AM,46.9,44.1,90,29.70,7.0,East,13.8,23.0,0.07,Rain,Light Rain,90,2013-05-18 13:54:00
6:54 AM,46.9,44.1,90,29.71,6.0,East,11.5,21.9,0.07,Rain,Light Rain,80,2013-05-18 14:54:00
7:54 AM,46.9,45.0,93,29.71,10.0,East,15.0,24.2,0.01,Rain,Light Rain,80,2013-05-18 15:54:00
8:45 AM,48.2,44.6,87,29.71,10.0,ENE,15.0,23.0,0.00,,Overcast,70,2013-05-18 16:45:00
8:54 AM,48.0,44.1,86,29.73,10.0,East,12.7,26.5,0.00,,Overcast,90,2013-05-18 16:54:00
9:54 AM,48.9,45.0,86,29.73,10.0,East,12.7,18.4,N/A,,Overcast,90,2013-05-18 17:54:00
10:54 AM,48.0,45.0,89,29.76,10.0,ESE,17.3,21.9,0.00,Rain,Light Rain,120,2013-05-18 18:54:00
11:25 AM,46.4,42.8,87,29.76,10.0,East,13.8,27.6,0.01,Rain,Light Rain,100,2013-05-18 19:25:00
11:39 AM,48.2,42.8,82,29.77,10.0,East,10.4,25.3,0.01,Rain,Light Rain,90,2013-05-18 19:39:00
11:54 AM,48.0,44.1,86,29.78,10.0,ESE,13.8,18.4,0.01,,Overcast,110,2013-05-18 19:54:00
12:29 PM,48.2,44.6,87,29.78,10.0,ESE,18.4,29.9,0.00,,Mostly Cloudy,110,2013-05-18 20:29:00
12:44 PM,48.2,44.6,87,29.79,10.0,East,18.4,27.6,0.00,,Mostly Cloudy,100,2013-05-18 20:44:00
12:54 PM,48.9,44.1,83,29.80,10.0,ESE,13.8,24.2,0.00,,Mostly Cloudy,110,2013-05-18 20:54:00
1:02 PM,48.2,44.6,87,29.79,10.0,ESE,10.4,23.0,N/A,,Mostly Cloudy,120,2013-05-18 21:02:00
1:27 PM,48.2,41.0,76,29.81,10.0,ESE,11.5,24.2,N/A,,Overcast,120,2013-05-18 21:27:00
1:54 PM,48.9,42.1,77,29.84,10.0,ESE,17.3,28.8,N/A,,Mostly Cloudy,120,2013-05-18 21:54:00
2:08 PM,48.2,41.0,76,29.84,10.0,ESE,20.7,34.5,N/A,,Mostly Cloudy,120,2013-05-18 22:08:00
2:54 PM,48.0,41.0,77,29.88,10.0,SE,18.4,33.4,N/A,,Mostly Cloudy,130,2013-05-18 22:54:00
3:54 PM,48.9,42.1,77,29.91,10.0,ESE,18.4,31.1,N/A,,Mostly Cloudy,120,2013-05-18 23:54:00
4:54 PM,50.0,41.0,71,29.94,10.0,SE,16.1,27.6,0.00,,Overcast,130,2013-05-19 00:54:00
5:54 PM,48.0,37.9,68,29.95,10.0,ESE,15.0,25.3,N/A,,Overcast,120,2013-05-19 01:54:00
6:54 PM,46.9,33.1,59,29.97,10.0,ESE,13.8,25.3,N/A,,Scattered Clouds,110,2013-05-19 02:54:00
7:54 PM,46.0,33.1,61,30.02,10.0,ESE,15.0,28.8,N/A,,Overcast,120,2013-05-19 03:54:00
8:54 PM,44.1,33.1,65,30.05,10.0,ESE,17.3,26.5,0.00,Rain,Light Rain,120,2013-05-19 04:54:00
9:54 PM,43.0,33.1,68,30.09,10.0,East,11.5,20.7,0.00,,Overcast,100,2013-05-19 05:54:00
10:54 PM,42.1,32.0,67,30.12,10.0,East,11.5,19.6,N/A,,Overcast,100,2013-05-19 06:54:00
11:54 PM,42.1,33.1,70,30.15,10.0,ESE,13.8,23.0,N/A,,Overcast,110,2013-05-19 07:54:00